Simultaneous Nadir Overpasses (SNOs) Predictions

Prediction of SNOs between NOAA-19 and NPP Satellite Orbit:

Table of predicted SNOs for the next 14.0 days since TLE Epoch: 2/5/2012
Index Date (NOAA-19) Time (NOAA-19) NOAA-19 Lat,Lon Date (NPP) Time (NPP) NPP Lat,Lon Distance(km) Time Diff (sec)
1 02/08/2012 11:00:42 -80.39, 151.59 02/08/2012 11:01:57 -80.40, 151.45 2.67 75
2 02/08/2012 11:51:43 80.45, -42.06 02/08/2012 11:52:44 80.45, -41.91 3.02 61
3 02/08/2012 12:42:47 -80.38, 126.23 02/08/2012 12:43:26 -80.37, 126.37 2.75 39
4 02/08/2012 13:33:42 80.30, -65.47 02/08/2012 13:34:08 80.30, -65.38 1.93 26
5 02/08/2012 14:24:47 -80.25, 102.46 02/08/2012 14:24:51 -80.24, 102.56 1.74 4
6 02/08/2012 15:15:41 80.14, -88.95 02/08/2012 15:15:32 80.13, -88.91 0.86 9
7 02/08/2012 16:06:45
